Regional Weather Roundup
Issued by NWS Green Bay, WI

Home | Current Version | Previous Version | Graphics & Text | Print | Product List | Glossary Off
Versions: 1 2 3 4 5 6 7 8 9 10 11 12 13 14 15 16 17 18 19 20 21 22 23 24 25 26 27 28 29 30 31 32 33 34 35 36 37 38 39 40 41 42 43 44 45 46 47 48 49 50

000
ASUS43 KGRB 260611
RWRGRB

NORTH-CENTRAL AND NORTHEAST WISCONSIN REGIONAL WEATHER ROUNDUP
NATIONAL WEATHER SERVICE GREEN BAY WI
100 AM CDT THU MAY 26 2016

WIZ005-009-010>012-018-019-260700-
NORTH CENTRAL WISCONSIN

CITY           SKY/WX    TMP DP  RH WIND       PRES   REMARKS
IRONWOOD       CLOUDY    54  54 100 W6        29.81S
MANITOWISH WTR NOT AVBL
ARBOR VITAE    LGT RAIN  60  58  95 CALM      29.83S
EAGLE RIVER    DRIZZLE   59  58  99 S6        29.83F
LAND O LAKES   DRIZZLE   59  58  97 CALM      29.84F
RHINELANDER    CLOUDY    61  59  93 SW9       29.85F
PHILLIPS       CLOUDY    61  61 100 S3        29.83F
ANTIGO         FOG       59  59 100 S9        29.86F VSB 1/2
TOMAHAWK       CLOUDY    61  60  95 CALM      29.85S
MERRILL        CLOUDY    63  63 100 SW6       29.86F FOG
$$

WIZ013-073-260700-
NORTHEAST WISCONSIN

CITY           SKY/WX    TMP DP  RH WIND       PRES   REMARKS
IRON MOUNTAIN  CLOUDY    59  58  96 SE7       29.84F
MARINETTE      PTCLDY    57  57 100 CALM      29.86F
OCONTO         PTCLDY   N/A N/A N/A S3        29.85S
$$

WIZ017-030-035>037-045-260700-
CENTRAL WISCONSIN

CITY           SKY/WX    TMP DP  RH WIND       PRES   REMARKS
MEDFORD        CLOUDY    61  61 100 SW6       29.86S
WAUSAU         CLOUDY    64  50  60 S7        29.85S HAZE
MOSINEE        CLOUDY    61  61 100 S6        29.88S FOG
MARSHFIELD     FOG       63  61  93 SW7       29.87S VSB 1/2
WISC RAPIDS    MOCLDY    61  58  90 SW6       29.88S FOG
STEVENS POINT  CLOUDY    58  58 100 CALM      29.87F FOG
WAUPACA        FOG       62  61  97 CALM      29.88S VSB 1
SHAWANO        CLOUDY    61  60  95 SW3       29.87S FOG
CLINTONVILLE   CLOUDY    59  59 100 S5        29.86F FOG
WAUTOMA        FOG       57  57 100 CALM      29.88F VSB 1/4
$$

WIZ038-039-048-051-260700-
FOX VALLEY

CITY           SKY/WX    TMP DP  RH WIND       PRES   REMARKS
NWS GREEN BAY  CLEAR     60  58  92 S7        29.86F FOG
APPLETON       CLEAR     59  59 100 S5        29.86S FOG
OSHKOSH        CLEAR     61  60  97 S7        29.87S FOG
FOND DU LAC    PTCLDY    63  61  93 S9        29.88F FOG
$$

WIZ022-050-052-260700-
EAST CENTRAL WISCONSIN

CITY           SKY/WX    TMP DP  RH WIND       PRES   REMARKS
EPHRAIM        MOCLDY    58  58  99 SE6       29.86F FOG
STURGEON BAY   NOT AVBL
MANITOWOC      PTCLDY    57  56  96 S9        29.89F FOG
SHEBOYGAN      CLOUDY    56  54  93 S5        29.90F FOG
$$

LMZ563-521-522-541>543-260700-
LAKESHORE

STATION/POSITION TIME  TEMP    WIND        PRES    VSBY  WAVE
                       AIR SEA DIR/SP/G                  HT/PER
                 (UTC) (F)     (DEG/KT/KT) (MB)    (MI)  (FT/S)
SHEBOYGAN LKSHOR 0600   51     190/  5/  5 1013.0F
KEWAUNEE LKSHORE 0500   52      30/  2/  5 1011.8F
ALGOMA MARINA    0502           70/  9/ 10   N/A
NORTHPORT PIER   0500   53     150/  5/  8 1012.2F
N MID LAKE BUOY  0550   53 45  150/ 10/ 12 1011.9F         1
SISTER BAY LKSHO 0519   57     150/  9/ 11   N/A
CHAMBERS ISLAND  0500   58     140/  1/  3 1011.9F
MENOMINEE LKSHOR 0500   58     140/  7/  7 1010.4F
$$




USA.gov is the U.S. government's official web portal to all federal, state and local government web resources and services.